Showing default

LEMUR 2 CAEL, 58903

Orbit data source: Space-Track

LEMUR 2 CAEL, 58903 is an American payload satellite in SSO that was launched on Wed, 31 Jan 2024 UTC via an ELECTRON launch vehicle from the Rocket Lab Launch Complex (RLLC). Payloads include a variety of satellites, spacecraft, and rockets equipped with specific instruments for various scientific and technological missions. These include communications satellites like Starlink; space stations such as the ISS; scientific satellites like the Hubble; Earth observation satellites from companies like Planet Labs, Umbra, and HawkEye 360; GPS; miniature CubeSats for education and research; and military/defense satellites.

Loading next visibility...
LEMUR 2 CAEL details
Identifier
58903, 2024-022E
Orbit
SSO
Last TLE update6 hours ago
Origin
Flag of USSPIRE/NSTAR (US)
ManufacturerSpire/Glasgow
MissionOperational Commercial Early Warn
Bus & MotorCUBESAT 3U, Unknown motor
Mass~25 kg wet, ~25 kg dry
Launch date (UTC)
2024-01-31 (11 months ago)
Launch vehicle
ELECTRON
Launch site
Rocket Lab Launch Complex (RLLC)
Object type
Payload
Rocket body
Debris
Shape & HBRBox + 2 Pan, 1 m
Radar Cross Section0.146 m², Medium (>0.1 m² and < 1m²)

Expand to show TLE details & history

TLE from 6 hours ago
0 LEMUR 2 CAEL
1 58903U 24022E   24356.49632156  .00015792  00000-0  69312-3 0  9999
2 58903  97.4595 194.7387 0010570 221.7272 138.3159 15.21985769 49287
Epoch: 2024-12-21T11:54Z
Definitive object data (Epoch: 2024-12-21T11:54:42.182Z)
Latitude-0.00002°
Longitude-74.4837°
Altitude508.377 km
Speed7.607 km/s
True Right ascension12h 58m 57s
True Declination0° 00' 00"
Sunlit
Object was in daylight at TLE epoch
Visualization TLE readout
Latitude4.66395°
Longitude106.35229°
Altitude497.356 km
Speed7.619 km/s
Apparent Right ascension02h 26m 36s
Apparent Declination-18° 18' 07"
Sunlit
Object is in daylight
Visualization observer readout
Local Sidereal Time16:27:25
Azimuth59.119° ENE
Elevation-56.183°
Doppler factor1
Orbital elements
Apogee altitude504.084 km
Perigee altitude489.55 km
Semi-major axis6,874.954 km
Eccentricity0.001057
Inclination97.4595°
RAAN194.7387°
Arg. of periapsis221.7272°
True anomaly138.39637°
Mean anomaly138.3159°
Eccentric anomaly138.35614°
Mean motion3.80749 °/min
BSTAR0.00069312
Orbital period94.55 mins
Loading maneuver chart data...
Loading historical data...
Loading historical data...
Loading historical data...
Loading historical data...
Loading historical data...
Loading historical data...
Loading historical data...

LEMUR 2 CAEL Visibility forecast

Observer location: undefined°, undefined

Span
Click to sort rows by Start time (UTC) header in descending order
Start Az.
Max El. time (UTC)
Max El. Az.
Max El.
End time (UTC)
End Az.
6 mins2024-12-22 02:39:48.620Z359.071° N2024-12-22 02:42:48.620Z309.344° NW34.329°2024-12-22 02:45:48.620Z217.851° SW
6 mins2024-12-22 13:17:48.620Z151.468° SSE2024-12-22 13:19:48.620Z109.178° ESE39.957°2024-12-22 13:23:48.620Z355.244° N
|